Regional Weather Roundup
Issued by NWS

Home | Current Version | Previous Version | Text Only | Print | Product List | Glossary On
Versions: 1 2 3 4 5 6 7 8 9 10 11 12 13 14 15 16 17 18 19 20 21 22 23 24 25 26 27 28 29 30 31 32 33 34 35 36 37 38 39 40 41 42 43 44 45 46 47 48 49 50
000
ASUS43 KDTX 261701
RWRMI
MICHIGAN HOURLY REGIONAL WEATHER ROUNDUP
NATIONAL WEATHER SERVICE DETROIT/PONTIAC MI
100 PM EDT MON SEP 26 2016

NOTE: "FAIR" INDICATES FEW OR NO CLOUDS BELOW 12,000 FEET WITH NO
SIGNIFICANT WEATHER AND/OR OBSTRUCTION TO VISIBILITY.

MIZ047>049-052>055-059>063-066>070-074>076-081>083-261800-
SOUTHEAST LOWER MICHIGAN

CITY           SKY/WX    TMP DP  RH WIND       PRES   REMARKS
ADRIAN         PTSUNNY   62  53  72 W10G18    29.95S
ALMA           PTSUNNY   64  51  63 SW18G32   29.86F
ANN ARBOR      CLOUDY    62  54  74 W10       29.92S
BAD AXE        CLOUDY    59  50  73 W12G20    29.84F
CARO           CLOUDY    60  52  74 W12G18    29.86F
DETROIT CITY   CLOUDY    62  56  80 W8G20     29.91R
DETROIT        CLOUDY    62  55  77 W15G28    29.92S
FLINT          CLOUDY    61  51  70 W9G18     29.89F
GROSSE ILE     LGT RAIN  62  58  86 NW8       29.91R
HILLSDALE      CLOUDY    61  48  63 W12G20    29.94F
HOWELL         CLOUDY    62  52  71 W14G21    29.90F

CITY           SKY/WX    TMP DP  RH WIND       PRES   REMARKS
JACKSON        CLOUDY    62  52  69 W16G23    29.92F
LAMBERTVILLE   CLOUDY    65  55  69 W9G20     29.95S
LANSING        MOSUNNY   62  49  62 W17G23    29.90F
LAPEER         FAIR      60  51  71 W7        29.88F
MASON          MOSUNNY   62  50  64 W15G21    29.91F
MONROE         CLOUDY    65  57  76 W16       29.91F
PONTIAC        CLOUDY    61  53  75 W16       29.89F
PORT HOPE        N/A     61  51  70 W5        29.81F
PORT HURON     DRIZZLE   57  55  94 W5        29.88S
TRI CITIES     MOSUNNY   62  51  67 SW16G23   29.85F HAZE
MIDLAND        PTSUNNY   62  51  65 W12G18    29.83F
TROY           CLOUDY    64  54  72 W15G25    29.91S
SAGINAW HB     CLOUDY    63  52  67 SW12G18   29.85F
$$
MIZ043>046-050>051-056>058-064>065-071>073-077>080-261800-
SOUTHWEST LOWER MICHIGAN

CITY           SKY/WX    TMP DP  RH WIND       PRES   REMARKS
BATTLE CREEK   PTSUNNY   65  49  56 W14G23    29.93F
BENTON HARBOR  SUNNY     67  43  41 W22G33    29.96S
BIG RAPIDS     CLOUDY    62  47  57 W22G32    29.83F
COLDWATER      PTSUNNY   63  47  55 W16G24    29.95F
FREMONT        PTSUNNY   60  40  46 W16G30    29.87F
HOLLAND        MOSUNNY   64  47  53 W18G28    29.92F
GRAND RAPIDS   PTSUNNY   66  45  46 W26G36    29.89F
IONIA          FAIR      65  43  44 W24G32    29.87F
KALAMAZOO      CLOUDY    67  43  41 W18G29    29.94F
LUDINGTON      CLOUDY    60  47  62 W17G25    29.83F
MARSHALL       CLOUDY    63  51  64 W14G21    29.93S
MOUNT PLEASANT PTSUNNY   65  50  58 W23G30    29.83F
MUSKEGON       PTSUNNY   64  47  53 W17G28    29.90S
SOUTH HAVEN    SUNNY     67  47  49 W15G28    29.94F
$$
MIZ016>042-261800-
NORTHERN LOWER MICHIGAN

CITY           SKY/WX    TMP DP  RH WIND       PRES   REMARKS
ALPENA         CLOUDY    59  50  72 SW9G18    29.76F
BEAVER ISLAND  CLOUDY    58  48  69 SW21G30   29.69S
BELLAIRE       CLOUDY    58  46  64 SW9G22    29.75S
CADILLAC       CLOUDY    55  46  70 SW18G26   29.80S
CHARLEVOIX     CLOUDY    58  48  67 SW25G35   29.74F
FRANKFORT      CLOUDY    58  45  61 W18G28    29.78F
GAYLORD        CLOUDY    57  45  64 SW15G25   29.74F
GRAYLING       CLOUDY    58  47  66 SW15G24   29.78S
HARBOR SPRINGS CLOUDY    58  49  72 SW16G24   29.70F
HOUGHTON LAKE  CLOUDY    58  46  64 W17G25    29.80F
MANISTEE       CLOUDY    59  46  62 W21G26    29.80F
OSCODA         PTSUNNY   59  52  77 SW15G22   29.78F
PELLSTON       CLOUDY    59  47  64 SW12G24   29.70F
ROGERS CITY    PTSUNNY   59  51  75 SW10G16   29.74S
TRAVERSE CITY  CLOUDY    58  47  66 SW8G18    29.75F
$$
MIZ007>008-015-261800-
EASTERN UPPER MICHIGAN

CITY           SKY/WX    TMP DP  RH WIND       PRES   REMARKS
KINROSS        CLOUDY    57  52  83 VRB7      29.66F
MACKINAC ISLAN CLOUDY    58  48  67 SW18G30   29.68S
NEWBERRY       CLOUDY    57  49  75 SW18G25   29.63S
S. S. MARIE    CLOUDY    58  50  75 SW13      29.65S
MUNISING         N/A     56  49  77 SW9       29.62S
$$
MIZ004>006-011>014-085-261800-
CENTRAL UPPER MICHIGAN

CITY           SKY/WX    TMP DP  RH WIND       PRES   REMARKS
MANISTIQUE     CLOUDY    56  47  72 SW8G20    29.66S
ESCANABA       LGT RAIN  55  49  80 SW16G23   29.68S
MENOMINEE      CLOUDY    59  46  62 W9G23     29.73F
SAWYER-GWINN   CLOUDY    54  48  82 SW16G22   29.62F
$$
MIZ001>003-009>011-084-261800-
WESTERN UPPER MICHIGAN

CITY           SKY/WX    TMP DP  RH WIND       PRES   REMARKS
IRON MOUNTAIN  CLOUDY    54  44  69 W17G28    29.66S
HOUGHTON       CLOUDY    55  49  80 W20G31    29.51F
COPPER HARBOR    N/A     55  52  89 NW9G16    29.48S
IRONWOOD       LGT RAIN  49  47  93 W20G26    29.68R
$$

ABBREVIATIONS USED IN REMARKS
   TC - TEMPERATURE IN CELSIUS
  WCI - WIND CHILL INDEX
   HX - HEAT INDEX
  VSB - VISIBILITY





USA.gov is the U.S. government's official web portal to all federal, state and local government web resources and services.